Tracking 19242 objects as of 20-Sep-2018
HD Live streaming from Space Station
objects crossing your sky now

FLOCK 2K 26

Track FLOCK 2K 26 now!
10-day predictions
FLOCK 2K 26 is classified as:


NORAD ID: 42883
Int'l Code: 2017-042BL
Perigee: 450.7 km
Apogee: 469.5 km
Inclination: 97.0 °
Period: 93.6 minutes
Semi major axis: 6831 km
RCS: Unknown
Launch date: July 14, 2017
Source: United States (US)
Launch site: TYURATAM MISSILE AND SPACE COMPLEX (TTMTR)
aabbcc
Your satellite tracking list
Your tracking list is empty




NASA's NSSDC Master Catalog

Two Line Element Set (TLE):
1 42883U 17042BL  18262.85364155  .00004509  00000-0  12363-3 0  9991
2 42883  96.9681 154.7025 0013761 113.8653 246.4036 15.37670605 66181
Source of the keplerian elements: AFSPC